MOLNIYA 3-41

Last updated on Jan. 25, 2020, 4:43 a.m. UTC

1 21706U 91065A   20024.53501339  .00000827  00000-0  57386-1 0  9991
2 21706  64.2239 257.6641 6810152 266.0786  79.6807  2.04340565209033
UTC
Height (km)
Latitude
Longitude
Inclination
Orbital Period
UTC large
Height (km)
Speed (km/s)
/
Latitude / Longitude
Inclination (degrees)
Orbital Period (minutes)
Azimuth
Elevation
Range (km)
Doppler Factor
iOS Compass Heading
iOS Angle

Next 30 passes for location: Hong Kong

Rise time Rise Azimuth (degrees) Set time Set Azimuth (degrees) Duration Max altitude (degrees)

No matching passes for this satellites